NULL Weather Reports


Display with metric or nautical units.
time (UTC)temp
F
wind
direction
speed
MPH
gust
MPH
rain 1hr
in
rain 24hr
in
rain mn
in
humidity
%
barometer
mb
20260903101536 66 178 0.0 0.0 0.00 0.00 0.00 83 1013.6
20260903101519 74 209 2.0 6.0 0.00 0.00 0.00 80 1009.9
20260903100035 66 178 0.0 0.0 0.00 0.00 0.00 83 1013.7
20260903100018 73 175 0.0 1.0 0.00 0.00 0.00 84 1009.8
20260903094531 65 173 0.0 0.0 0.00 0.00 0.00 84 1013.7
20260903094518 73 176 0.0 0.0 0.00 0.00 0.00 84 1009.8
20260903093029 66 173 0.0 0.0 0.00 0.00 0.00 83 1013.8
20260903093017 73 176 0.0 0.0 0.00 0.00 0.00 84 1009.9
20260903091527 66 173 0.0 0.0 0.00 0.00 0.00 83 1013.8
20260903091518 73 177 0.0 1.0 0.00 0.00 0.00 84 1009.9
20260903090027 66 173 0.0 0.0 0.00 0.00 0.00 82 1013.9
20260903090015 73 176 0.0 0.0 0.00 0.00 0.00 84 1010.0
20260903084538 66 173 0.0 0.0 0.00 0.00 0.00 82 1014.1
20260903084513 73 177 0.0 2.0 0.00 0.00 0.00 84 1010.0
20260903083024 66 173 0.0 0.0 0.00 0.00 0.00 82 1014.1
20260903083012 74 215 0.0 3.0 0.00 0.00 0.00 83 1010.1
20260903081520 66 173 0.0 0.0 0.00 0.00 0.00 81 1014.2
20260903081511 74 94 0.0 2.0 0.00 0.00 0.00 83 1009.9
20260903080019 67 173 0.0 0.0 0.00 0.00 0.00 81 1014.3
20260903080009 74 94 0.0 0.0 0.00 0.00 0.00 83 1009.8
20260903074516 67 173 0.0 0.0 0.00 0.00 0.00 80 1014.3
20260903074511 75 93 0.0 0.0 0.00 0.00 0.00 82 1009.8
20260903073014 67 173 0.0 0.0 0.00 0.00 0.00 80 1014.3
20260903073008 75 92 0.0 0.0 0.00 0.00 0.00 82 1009.9
20260903071513 67 173 0.0 0.0 0.00 0.00 0.00 80 1014.2
20260903071504 75 92 0.0 0.0 0.00 0.00 0.00 82 1009.9
20260903070013 75 92 0.0 0.0 0.00 0.00 0.00 83 1010.0
20260903070010 68 173 0.0 0.0 0.00 0.00 0.00 79 1014.3
20260903064510 68 173 0.0 0.0 0.00 0.00 0.00 78 1014.4
20260903064502 76 99 0.0 0.0 0.00 0.00 0.00 83 1010.1
20260903063109 76 89 0.0 0.0 0.00 0.00 0.00 84 1009.9
20260903063011 68 173 0.0 0.0 0.00 0.00 0.00 78 1014.2
20260903061608 76 89 0.0 0.0 0.00 0.00 0.00 84 1009.9
20260903061508 68 173 0.0 0.0 0.00 0.00 0.00 78 1014.2
20260903060059 76 88 0.0 0.0 0.00 0.00 0.00 84 1010.2
20260903060009 69 173 0.0 0.0 0.00 0.00 0.00 77 1014.2
20260903054602 76 88 0.0 0.0 0.00 0.00 0.00 84 1009.9
20260903054510 69 174 0.0 0.0 0.00 0.00 0.00 77 1014.1
20260903053056 77 88 0.0 0.0 0.00 0.00 0.00 84 1009.9
20260903053007 69 174 0.0 0.0 0.00 0.00 0.00 77 1014.2
20260903051554 77 88 0.0 0.0 0.00 0.00 0.00 84 1009.9
20260903051507 69 175 0.0 0.0 0.00 0.00 0.00 75 1014.2
20260903050050 77 88 0.0 0.0 0.00 0.00 0.00 83 1009.9
20260903050009 69 175 0.0 0.0 0.00 0.00 0.00 74 1014.1
20260903044555 77 88 0.0 0.0 0.00 0.00 0.00 80 1009.8
20260903044506 70 175 0.0 0.0 0.00 0.00 0.00 73 1013.9
20260903043050 78 88 0.0 0.0 0.00 0.00 0.00 78 1009.8
20260903043012 70 175 0.0 0.0 0.00 0.00 0.00 72 1013.8
20260903041605 78 88 0.0 0.0 0.00 0.00 0.00 77 1009.8
20260903041506 71 175 0.0 0.0 0.00 0.00 0.00 72 1013.9
20260903040050 79 88 0.0 0.0 0.00 0.00 0.00 79 1009.8
20260903040008 71 175 0.0 0.0 0.00 0.00 0.00 71 1013.7
20260903034548 79 88 0.0 0.0 0.00 0.00 0.00 78 1009.9
20260903034506 72 175 0.0 0.0 0.00 0.00 0.00 70 1013.5
20260903033049 80 88 0.0 0.0 0.00 0.00 0.00 78 1009.9
20260903033004 72 175 0.0 0.0 0.00 0.00 0.00 67 1013.4
20260903031547 80 359 0.0 0.0 0.00 0.00 0.00 76 1009.8
20260903031503 72 175 0.0 0.0 0.00 0.00 0.00 65 1013.2
20260903030047 81 359 0.0 0.0 0.00 0.00 0.00 75 1009.8
20260903030003 73 174 0.0 0.0 0.00 0.00 0.00 65 1013.2
20260903024546 81 359 0.0 0.0 0.00 0.00 0.00 74 1009.7
20260903024504 73 173 0.0 0.0 0.00 0.00 0.00 65 1013.2
20260903023046 82 359 0.0 0.0 0.00 0.00 0.00 72 1009.8
20260903023002 74 171 0.0 0.0 0.00 0.00 0.00 66 1013.2
20260903021545 83 359 0.0 1.0 0.00 0.00 0.00 70 1009.7
20260903021506 75 171 0.0 0.0 0.00 0.00 0.00 63 1013.1
20260903020051 84 359 0.0 0.0 0.00 0.00 0.00 68 1009.5
20260903020001 76 156 0.0 0.0 0.00 0.00 0.00 63 1013.0
20260903014605 85 359 0.0 0.0 0.00 0.00 0.00 66 1009.3
20260903014501 76 140 0.0 0.0 0.00 0.00 0.00 64 1012.8
20260903013100 76 144 0.0 0.0 0.00 0.00 0.00 69 1012.7
20260903013058 86 128 0.0 0.0 0.00 0.00 0.00 62 1009.2
20260903011610 89 128 0.0 0.0 0.00 0.00 0.00 58 1009.1
20260903011604 76 151 0.0 0.0 0.00 0.00 0.00 69 1012.7
20260903010058 76 148 0.0 0.0 0.00 0.00 0.00 66 1012.8
20260903004557 77 151 0.0 0.0 0.00 0.00 0.00 63 1012.8
20260903004543 92 128 0.0 2.0 0.00 0.00 0.00 50 1008.8
20260903003055 77 146 0.0 0.0 0.00 0.00 0.00 63 1012.8
20260903001558 78 161 0.0 0.0 0.00 0.00 0.00 63 1012.8
20260903001553 95 159 1.0 5.0 0.00 0.00 0.00 46 1008.8
20260903000057 78 150 0.0 0.0 0.00 0.00 0.00 61 1012.8
20260903000046 96 157 1.0 6.0 0.00 0.00 0.00 44 1008.8
20260902234555 78 165 0.0 1.0 0.00 0.00 0.00 58 1012.8
20260902234543 96 183 3.0 8.0 0.00 0.00 0.00 42 1008.9
20260902233052 78 175 0.0 0.0 0.00 0.00 0.00 57 1013.0
20260902233039 97 131 3.0 11.0 0.00 0.00 0.00 41 1009.0
20260902231549 79 198 0.0 0.0 0.00 0.00 0.00 55 1013.1
20260902231545 97 131 5.0 10.0 0.00 0.00 0.00 40 1009.0
20260902230047 97 168 6.0 11.0 0.00 0.00 0.00 40 1009.2
20260902224545 79 160 0.0 0.0 0.00 0.00 0.00 59 1013.3
20260902224537 97 215 5.0 10.0 0.00 0.00 0.00 40 1009.1
20260902223044 79 216 0.0 0.0 0.00 0.00 0.00 59 1013.6
20260902223039 98 202 6.0 12.0 0.00 0.00 0.00 39 1009.1
20260902221544 80 169 0.0 1.0 0.00 0.00 0.00 58 1013.8
20260902221531 98 220 6.0 11.0 0.00 0.00 0.00 39 1009.0
20260902220046 79 144 0.0 0.0 0.00 0.00 0.00 57 1014.0
20260902220033 98 191 10.0 15.0 0.00 0.00 0.00 38 1009.1
20260902214542 80 181 0.0 0.0 0.00 0.00 0.00 57 1014.2
20260902214524 98 190 6.0 14.0 0.00 0.00 0.00 40 1009.2
20260902213039 81 191 0.0 0.0 0.00 0.00 0.00 60 1014.2
20260902213018 98 195 8.0 15.0 0.00 0.00 0.00 38 1009.3
20260902211543 81 144 0.0 1.0 0.00 0.00 0.00 61 1014.3
20260902211515 98 77 9.0 18.0 0.00 0.00 0.00 38 1009.5
20260902210106 82 145 0.0 0.0 0.00 0.00 0.00 60 1014.4
20260902210009 98 189 4.0 17.0 0.00 0.00 0.00 38 1009.7
20260902204541 82 155 0.0 0.0 0.00 0.00 0.00 61 1014.5
20260902204505 98 158 6.0 17.0 0.00 0.00 0.00 40 1009.8
20260902203058 98 198 4.0 17.0 0.00 0.00 0.00 41 1010.0
20260902203036 81 158 0.0 0.0 0.00 0.00 0.00 61 1014.3
20260902201556 98 210 9.0 14.0 0.00 0.00 0.00 41 1010.1
20260902201536 82 208 0.0 0.0 0.00 0.00 0.00 59 1014.4
20260902200142 97 170 6.0 16.0 0.00 0.00 0.00 41 1010.2
20260902200032 81 132 0.0 0.0 0.00 0.00 0.00 57 1014.7
20260902194548 97 132 9.0 17.0 0.00 0.00 0.00 43 1010.5
20260902194534 81 146 0.0 0.0 0.00 0.00 0.00 59 1014.9
20260902193028 80 148 0.0 0.0 0.00 0.00 0.00 59 1015.0
20260902191527 80 180 0.0 0.0 0.00 0.00 0.00 62 1015.3
20260902191520 97 203 9.0 15.0 0.00 0.00 0.00 44 1010.8
20260902190035 80 150 0.0 0.0 0.00 0.00 0.00 61 1015.2
20260902190011 96 213 6.0 17.0 0.00 0.00 0.00 46 1010.9
20260902184530 79 140 0.0 0.0 0.00 0.00 0.00 63 1015.3
20260902184505 96 141 10.0 18.0 0.00 0.00 0.00 46 1011.3
20260902183058 95 144 6.0 15.0 0.00 0.00 0.00 48 1011.4
20260902183021 78 143 0.0 0.0 0.00 0.00 0.00 65 1015.5
20260902181549 95 179 8.0 16.0 0.00 0.00 0.00 47 1011.5
20260902181520 78 122 0.0 0.0 0.00 0.00 0.00 63 1015.6
20260902180044 94 203 7.0 16.0 0.00 0.00 0.00 50 1011.8
20260902180016 77 144 0.0 0.0 0.00 0.00 0.00 65 1015.8
20260902174539 93 216 6.0 20.0 0.00 0.00 0.00 50 1011.8
20260902174513 76 145 0.0 0.0 0.00 0.00 0.00 66 1015.8
20260902173035 93 287 8.0 15.0 0.00 0.00 0.00 51 1012.2
20260902173012 76 147 0.0 0.0 0.00 0.00 0.00 69 1015.7
20260902171530 92 153 7.0 16.0 0.00 0.00 0.00 52 1012.2
20260902171505 75 148 0.0 0.0 0.00 0.00 0.00 68 1015.7
20260902170108 74 140 0.0 0.0 0.00 0.00 0.00 72 1015.6
20260902170029 92 193 8.0 15.0 0.00 0.00 0.00 52 1012.3
20260902164557 73 128 0.0 0.0 0.00 0.00 0.00 74 1015.6
20260902164526 91 224 8.0 15.0 0.00 0.00 0.00 54 1012.4
20260902163053 72 141 0.0 0.0 0.00 0.00 0.00 76 1015.5
20260902163023 90 210 7.0 13.0 0.00 0.00 0.00 55 1012.5
20260902161551 71 154 0.0 0.0 0.00 0.00 0.00 79 1015.6
20260902161526 89 196 9.0 15.0 0.00 0.00 0.00 56 1012.4
20260902160052 69 138 0.0 0.0 0.00 0.00 0.00 80 1015.5
20260902160021 88 241 8.0 17.0 0.00 0.00 0.00 58 1012.4
20260902154544 68 128 0.0 0.0 0.00 0.00 0.00 82 1015.5
20260902154513 87 223 5.0 10.0 0.00 0.00 0.00 61 1012.4
20260902153042 68 114 0.0 0.0 0.00 0.00 0.00 82 1015.3
20260902153010 86 195 6.0 14.0 0.00 0.00 0.00 62 1012.4
20260902151544 67 128 0.0 0.0 0.00 0.00 0.00 83 1015.3
20260902151506 85 191 9.0 16.0 0.00 0.00 0.00 63 1012.4
20260902150036 65 126 0.0 0.0 0.00 0.00 0.00 84 1015.4
20260902150003 84 180 7.0 16.0 0.00 0.00 0.00 64 1012.5
20260902144547 64 116 0.0 0.0 0.00 0.00 0.00 86 1015.0
20260902144501 83 183 6.0 13.0 0.00 0.00 0.00 64 1012.6
20260902143107 82 208 5.0 11.0 0.00 0.00 0.00 64 1012.7
20260902143036 63 155 0.0 0.0 0.00 0.00 0.00 88 1015.1
20260902141556 82 205 7.0 12.0 0.00 0.00 0.00 66 1012.8
20260902141538 62 155 0.0 0.0 0.00 0.00 0.00 89 1015.0
20260902140054 81 196 5.0 10.0 0.00 0.00 0.00 67 1012.8
20260902140033 62 155 0.0 0.0 0.00 0.00 0.00 89 1014.8
20260902134551 80 300 4.0 11.0 0.00 0.00 0.00 69 1012.8
20260902134535 62 155 0.0 0.0 0.00 0.00 0.00 88 1014.7
20260902133050 79 194 4.0 9.0 0.00 0.00 0.00 71 1012.8
20260902133031 62 155 0.0 0.0 0.00 0.00 0.00 88 1014.6
20260902131630 62 155 0.0 0.0 0.00 0.00 0.00 87 1014.6
20260902131552 78 221 3.0 10.0 0.00 0.00 0.00 72 1012.8
20260902130049 76 192 1.0 7.0 0.00 0.00 0.00 74 1012.7
20260902130035 62 155 0.0 0.0 0.00 0.00 0.00 87 1014.7
20260902124547 75 359 2.0 5.0 0.00 0.00 0.00 77 1012.7
20260902124529 63 155 0.0 0.0 0.00 0.00 0.00 87 1014.6
20260902123046 73 187 2.0 4.0 0.00 0.00 0.00 81 1012.6
20260902123029 63 155 0.0 0.0 0.00 0.00 0.00 87 1014.8
20260902121548 71 359 1.0 3.0 0.00 0.00 0.00 84 1012.5
20260902121523 63 155 0.0 0.0 0.00 0.00 0.00 86 1014.7
20260902120044 71 169 0.0 0.0 0.00 0.00 0.00 84 1012.3
20260902120022 63 155 0.0 0.0 0.00 0.00 0.00 86 1014.6
20260902114544 71 168 0.0 0.0 0.00 0.00 0.00 84 1012.2
20260902114521 63 155 0.0 0.0 0.00 0.00 0.00 86 1014.7
20260902113046 71 168 0.0 0.0 0.00 0.00 0.00 84 1012.1
20260902113018 64 155 0.0 0.0 0.00 0.00 0.00 86 1014.7
20260902111539 71 359 0.0 0.0 0.00 0.00 0.00 84 1012.1
20260902111517 64 155 0.0 0.0 0.00 0.00 0.00 87 1014.8
20260902110042 72 168 0.0 0.0 0.00 0.00 0.00 83 1012.0
20260902110016 64 155 0.0 0.0 0.00 0.00 0.00 87 1014.9
20260902104558 72 359 0.0 0.0 0.00 0.00 0.00 83 1012.1
20260902104525 64 155 0.0 0.0 0.00 0.00 0.00 87 1014.9
20260902103036 72 168 0.0 0.0 0.00 0.00 0.00 83 1012.1
20260902103017 64 155 0.0 0.0 0.00 0.00 0.00 87 1015.0